User: anonymous
Location: Caltech
(34.1382°N, 118.1253°W)
Time: 12:27:24
(UTC-07:00)
Language:

Hamsat - Orbit

View from above orbital plane
View from above orbital plane
View from above satellite
View from above satellite

Ground track
Ground track

The orbit data is extracted from the following two-line orbital elements,

1 28650U 05017B   14258.47469126  .00002325  00000-0  27217-3 0  8424
2 28650 097.5640 258.9535 0024103 216.4650 143.4926 14.85762896506630
Epoch (UTC): 15 September 2014 11:23:33
Eccentricity: 0.0024103
inclination: 97.5640°
perigee height: 594 km
apogee height: 628 km
right ascension of ascending node: 258.9535°
argument of perigee: 216.4650°
revolutions per day: 14.85762896
mean anomaly at epoch: 143.4926°
orbit number at epoch: 50663

The dashed part of the orbit path shows where the satellite is in the earth's shadow,  

DLR